Precipitable_Water
1.40 1.37 1.31 1.44 1.48 1.51 1.48 1.55 1.53 1.53 1.52 1.48 1.45 1.54 1.53 1.62 1.72 1.61 1.60 1.59 1.50 1.66 1.69 1.54 1.42 1.39 1.32 1.45 1.36 1.49 1.47 1.57 1.59 1.37 1.54 1.50 1.57 1.61 1.71 1.81 1.78 1.86 1.76
1.37 1.43 1.45 1.41 1.36 1.43 1.50 1.49 1.54 1.54 1.54 1.53 1.67 1.58 1.57 1.53 1.60 1.70 1.62 1.66 1.47 1.37 1.36 1.35 1.46 1.42 1.33 1.43 1.43 1.32 1.35 1.57 1.68 1.39 1.45 1.37 1.46 1.76 1.82 1.83 1.79 1.74 1.79
1.29 1.33 1.45 1.43 1.48 1.41 1.46 1.47 1.51 1.54 1.57 1.56 1.56 1.66 1.68 1.59 1.62 1.58 1.60 1.59 1.61 1.56 1.39 1.38 1.46 1.42 1.43 1.36 1.43 1.45 1.49 1.46 1.66 1.75 1.38 1.19 1.21 1.55 1.73 1.72 1.77 1.90 1.75
1.41 1.42 1.36 1.49 1.55 1.45 1.50 1.53 1.51 1.51 1.55 1.54 1.47 1.46 1.48 1.33 1.46 1.53 1.64 1.60 1.59 1.52 1.43 1.35 1.36 1.40 1.45 1.36 1.55 1.60 1.64 1.60 1.48 1.66 1.56 1.46 1.41 1.18 1.30 1.63 1.63 1.88 1.79
1.35 1.37 1.43 1.41 1.51 1.60 1.50 1.49 1.54 1.53 1.52 1.57 1.47 1.48 1.46 1.52 1.50 1.59 1.69 1.51 1.62 1.60 1.56 1.49 1.51 1.45 1.36 1.42 1.50 1.63 1.69 1.66 1.61 1.48 1.43 1.42 1.42 1.49 1.31 1.27 1.51 1.69 1.73
1.34 1.36 1.42 1.50 1.59 1.65 1.59 1.52 1.50 1.57 1.53 1.52 1.52 1.50 1.48 1.61 1.70 1.70 1.51 1.54 1.60 1.63 1.57 1.48 1.44 1.45 1.38 1.52 1.60 1.78 1.67 1.69 1.73 1.65 1.36 1.44 1.38 1.35 1.33 1.27 1.28 1.40 1.67
1.30 1.35 1.40 1.47 1.59 1.56 1.60 1.57 1.53 1.46 1.59 1.47 1.45 1.51 1.53 1.54 1.53 1.51 1.50 1.57 1.65 1.57 1.56 1.55 1.55 1.57 1.62 1.69 1.72 1.69 1.67 1.66 1.62 1.54 1.37 1.57 1.54 1.52 1.49 1.43 1.35 1.45 1.67
1.23 1.30 1.48 1.59 1.62 1.62 1.63 1.55 1.42 1.51 1.56 1.55 1.43 1.47 1.60 1.54 1.57 1.58 1.61 1.66 1.75 1.61 1.72 1.66 1.64 1.63 1.65 1.75 1.82 1.77 1.68 1.59 1.55 1.60 1.51 1.49 1.60 1.74 1.68 1.54 1.52 1.38 1.53
1.08 1.25 1.45 1.55 1.66 1.63 1.65 1.53 1.54 1.64 1.61 1.58 1.55 1.46 1.52 1.60 1.61 1.73 1.68 1.68 1.77 1.67 1.76 1.75 1.80 1.77 1.71 1.72 1.69 1.71 1.66 1.63 1.66 1.58 1.67 1.64 1.63 1.80 1.58 1.67 1.76 1.55 1.35
1.11 1.18 1.18 1.44 1.62 1.67 1.64 1.60 1.51 1.59 1.65 1.70 1.63 1.54 1.44 1.54 1.62 1.66 1.70 1.73 1.84 1.73 1.94 1.75 1.88 1.86 1.77 1.77 1.67 1.68 1.76 1.65 1.58 1.62 1.67 1.85 1.71 1.68 1.58 1.78 1.82 1.76 1.59
1.12 1.17 1.14 1.27 1.46 1.59 1.54 1.65 1.80 1.73 1.76 1.83 1.73 1.60 1.55 1.48 1.63 1.59 1.55 1.73 1.79 1.78 1.80 1.86 1.89 1.87 1.75 1.75 1.69 1.69 1.59 1.53 1.63 1.69 1.67 1.82 1.82 1.64 1.55 1.64 1.72 1.76 1.61
1.19 1.16 1.12 1.24 1.27 1.39 1.55 1.59 1.65 1.71 1.81 1.88 1.79 1.63 1.61 1.62 1.49 1.53 1.57 1.67 1.71 1.75 1.81 1.81 1.81 1.71 1.64 1.73 1.70 1.67 1.57 1.55 1.60 1.70 1.75 1.72 1.84 1.65 1.57 1.58 1.52 1.67 1.76
1.08 1.04 1.11 1.22 1.32 1.41 1.49 1.56 1.59 1.65 1.63 1.59 1.74 1.71 1.59 1.57 1.59 1.46 1.53 1.69 1.69 1.74 1.83 1.78 1.63 1.62 1.49 1.58 1.62 1.59 1.61 1.65 1.68 1.78 1.84 1.81 1.76 1.68 1.75 1.81 1.64 1.71 1.86
0.94 1.03 1.06 1.16 1.25 1.27 1.38 1.47 1.60 1.69 1.62 1.76 1.78 1.81 1.71 1.61 1.63 1.63 1.50 1.54 1.66 1.63 1.64 1.59 1.58 1.48 1.40 1.55 1.63 1.60 1.67 1.75 1.75 1.88 1.90 1.89 1.89 1.77 1.85 1.88 1.79 1.69 1.73
0.93 0.95 0.94 0.98 1.06 1.07 1.16 1.31 1.49 1.55 1.65 1.79 1.78 1.74 1.81 1.82 1.68 1.70 1.67 1.56 1.55 1.54 1.51 1.53 1.55 1.55 1.52 1.55 1.60 1.58 1.64 1.68 1.74 1.80 1.76 1.95 2.00 2.00 1.94 1.83 1.86 1.80 1.67
0.96 0.88 0.84 0.83 0.87 0.92 0.93 1.02 1.16 1.34 1.53 1.68 1.83 1.92 1.86 1.77 1.68 1.67 1.65 1.63 1.55 1.57 1.59 1.50 1.52 1.53 1.55 1.59 1.60 1.56 1.50 1.52 1.56 1.54 1.68 1.82 1.89 1.94 2.00 2.03 2.08 2.03 1.81
1.02 0.87 0.87 0.87 0.97 0.99 1.02 1.04 1.14 1.32 1.44 1.54 1.73 1.91 1.80 1.73 1.57 1.71 1.77 1.70 1.63 1.65 1.64 1.62 1.59 1.58 1.53 1.54 1.52 1.56 1.58 1.55 1.54 1.57 1.58 1.62 1.76 1.82 1.87 1.90 1.98 1.95 1.91
1.10 0.91 0.93 1.00 1.01 0.98 1.05 1.08 1.11 1.20 1.27 1.39 1.56 1.69 1.73 1.80 1.88 1.90 1.76 1.73 1.77 1.73 1.65 1.66 1.73 1.69 1.65 1.64 1.54 1.48 1.49 1.53 1.59 1.61 1.61 1.61 1.59 1.64 1.65 1.76 1.84 1.82 1.86
1.08 0.94 0.97 1.06 1.04 1.01 1.06 1.03 1.08 1.16 1.24 1.30 1.39 1.49 1.66 1.83 1.98 1.87 1.86 1.84 1.69 1.69 1.85 1.85 1.84 1.86 1.79 1.86 1.83 1.73 1.61 1.53 1.57 1.71 1.76 1.73 1.63 1.59 1.61 1.57 1.54 1.63 1.70
1.09 1.00 0.95 1.02 1.01 0.98 1.03 0.97 0.89 0.93 1.04 1.22 1.40 1.56 1.65 1.60 1.69 1.94 2.07 2.08 1.96 2.06 2.07 2.05 2.07 2.00 1.90 1.96 1.98 2.00 1.96 1.82 1.79 1.82 1.84 1.86 1.87 1.78 1.70 1.61 1.53 1.47 1.53
1.11 1.13 0.93 0.93 1.04 1.05 0.97 0.82 0.77 0.76 0.95 1.07 1.27 1.41 1.48 1.51 1.52 1.57 1.68 1.90 2.09 2.19 2.07 2.11 2.10 2.14 2.13 2.10 2.10 2.09 2.04 1.99 1.94 1.93 1.96 1.99 2.05 2.04 1.95 1.89 1.83 1.75 1.79
1.11 1.07 0.98 1.02 0.94 0.92 0.86 0.77 0.74 0.88 0.97 1.05 1.09 1.21 1.32 1.42 1.45 1.44 1.46 1.53 1.62 1.72 1.88 1.99 2.02 2.06 2.07 2.10 2.07 2.05 2.15 2.18 2.09 2.05 2.11 2.16 2.19 2.21 2.19 2.13 2.09 2.03 1.95
1.14 1.11 0.98 1.01 0.96 0.88 0.82 0.77 0.79 0.83 0.86 0.95 0.99 1.10 1.20 1.25 1.29 1.30 1.35 1.38 1.41 1.38 1.39 1.45 1.54 1.75 1.88 1.91 2.00 2.04 2.09 2.11 2.07 2.18 2.16 2.19 2.24 2.16 2.13 2.12 2.12 2.04 1.94
1.13 1.03 0.99 0.97 0.95 1.00 0.93 0.85 0.86 0.82 0.79 0.84 0.93 0.96 1.01 1.10 1.16 1.21 1.25 1.30 1.33 1.34 1.35 1.36 1.36 1.43 1.52 1.63 1.75 1.85 1.97 2.04 2.08 2.09 2.10 2.13 2.16 2.16 2.11 2.05 2.02 1.96 1.86
0.99 0.98 0.94 0.95 1.01 1.11 1.08 1.00 0.93 0.93 0.88 0.86 0.91 0.91 0.93 1.05 0.98 1.06 1.08 1.12 1.17 1.19 1.19 1.23 1.27 1.28 1.31 1.46 1.62 1.68 1.72 1.84 1.93 1.96 1.95 1.91 1.89 1.86 1.84 1.86 1.91 1.96 1.88
0.93 0.93 0.92 1.00 1.09 1.18 1.14 0.93 1.01 0.97 0.91 0.89 0.93 0.97 0.95 1.01 1.08 1.00 1.06 1.18 1.18 1.22 1.24 1.26 1.26 1.28 1.33 1.38 1.44 1.55 1.68 1.73 1.77 1.73 1.70 1.70 1.73 1.70 1.72 1.77 1.79 1.78 1.72
Wind_Speed
9 10 10 12 12 12 11 13 14 13 13 14 14 13 14 13 12 14 14 12 11 12 11 10 9 7 6 5 3 2 2 1 2 3 4 6 5 5 6 5 6 7 6
10 11 11 10 13 12 11 12 14 14 14 14 14 13 14 13 13 14 14 13 12 12 11 10 9 7 6 5 4 3 3 1 2 2 2 4 5 4 6 7 6 8 8
12 10 12 12 13 13 12 11 13 15 14 14 14 14 14 13 12 14 14 12 12 13 11 11 10 8 6 5 4 3 3 2 1 2 4 4 3 4 4 4 5 3 3
15 13 13 13 13 13 11 11 12 14 15 15 15 15 14 14 14 15 14 13 13 13 12 12 11 9 8 6 5 4 4 2 2 2 3 3 2 4 3 3 3 2 3
16 15 14 14 15 14 13 12 12 13 15 16 16 17 15 15 14 14 14 14 14 13 11 11 10 9 8 8 6 5 5 4 3 3 2 2 3 3 3 3 3 3 4
15 14 15 14 17 15 13 13 14 14 15 16 17 18 16 16 15 15 15 16 15 14 12 12 11 9 8 9 8 7 6 5 4 3 2 3 3 2 2 1 1 2 3
15 15 14 14 17 16 15 15 15 16 16 16 18 19 18 17 17 15 15 16 15 15 13 13 12 10 9 10 10 9 7 7 6 5 4 4 3 1 2 1 1 1 1
14 14 14 15 16 16 18 17 16 16 17 17 18 20 19 19 18 17 16 17 16 15 15 14 12 11 9 9 10 10 9 9 8 6 5 5 5 3 2 2 1 1 1
13 15 14 15 16 17 16 19 20 18 17 19 18 19 21 20 20 19 17 18 17 17 16 16 14 12 11 9 9 9 9 9 8 8 6 6 7 6 3 3 2 3 3
11 10 13 13 15 17 15 18 21 21 18 19 19 20 20 21 21 20 19 19 18 17 17 17 16 15 13 12 11 10 10 9 9 9 8 7 7 6 4 3 3 2 2
8 9 10 12 14 14 14 17 18 22 22 19 19 21 21 22 22 21 21 21 20 19 17 18 15 17 16 15 13 13 12 11 10 10 10 9 8 8 6 4 4 5 4
6 7 9 11 11 13 13 16 18 20 21 21 20 20 22 21 23 23 22 21 21 20 20 18 17 16 17 16 15 15 13 12 12 11 11 11 10 9 8 7 5 5 6
7 5 6 9 10 11 12 16 18 20 22 29 25 24 22 22 23 23 23 23 22 22 21 20 19 18 17 16 16 16 15 13 13 13 13 12 12 11 10 9 8 8 8
4 6 6 7 8 8 10 13 16 17 15 10 30 28 25 24 23 23 24 24 24 23 22 21 20 20 20 19 18 17 17 15 15 15 14 14 14 14 13 13 11 11 10
5 5 5 4 5 5 7 9 12 14 16 16 17 28 30 29 26 23 24 24 25 25 24 23 21 21 21 20 20 20 19 18 17 16 16 15 15 15 15 15 14 13 12
6 6 5 3 3 4 6 7 10 11 12 15 18 18 24 26 29 27 25 25 25 24 24 24 23 23 23 22 22 21 21 20 19 18 17 16 16 16 16 16 16 15 15
8 8 6 5 4 4 5 6 8 9 11 12 15 18 17 26 26 29 27 27 26 25 26 26 25 25 24 23 23 23 22 22 22 21 20 19 18 17 17 17 18 16 16
9 9 8 6 5 5 5 5 6 8 9 10 11 14 17 20 27 28 29 28 28 28 27 27 27 26 26 25 24 24 24 24 24 24 23 22 21 20 19 19 18 18 18
10 10 9 7 6 6 7 7 7 8 8 8 9 11 11 17 22 24 27 30 28 27 29 29 29 29 28 27 27 26 26 26 26 25 25 24 23 23 22 21 21 20 19
12 11 10 8 7 8 8 9 9 9 10 10 10 9 9 11 13 19 23 26 29 28 28 29 29 30 30 29 30 29 29 29 28 28 27 27 26 24 24 24 23 22 22
13 11 11 9 9 9 9 10 10 10 11 11 11 12 12 11 11 13 17 21 23 27 29 28 28 28 28 29 30 31 32 32 31 31 30 30 29 28 27 26 26 25 24
13 11 11 11 10 10 10 10 10 10 10 11 12 13 13 13 13 13 13 14 16 21 25 27 28 28 28 29 31 32 32 32 33 34 33 32 32 30 28 28 28 27 26
14 13 12 12 12 11 10 10 10 10 10 11 11 11 11 12 14 14 15 16 16 17 18 20 21 26 30 31 32 32 32 33 34 34 34 34 33 32 30 29 28 28 27
15 14 13 13 13 12 12 11 10 10 10 11 11 11 11 11 12 12 13 14 15 16 18 19 21 23 25 26 28 31 33 33 32 32 32 33 32 32 31 31 31 31 29
15 14 14 13 13 12 12 12 11 10 10 11 12 13 12 11 11 11 11 11 11 12 12 14 16 18 20 23 25 27 27 29 32 32 31 31 32 32 31 30 29 26 24
14 13 13 12 12 12 12 12 12 11 11 12 13 14 14 14 14 13 12 11 11 11 11 11 11 12 13 15 17 19 21 22 23 25 28 28 28 26 23 22 23 21 20
Wind_Direction
205 192 183 191 192 191 191 191 191 189 187 188 188 189 188 188 183 181 180 181 178 176 173 174 176 176 181 185 178 169 136 74 29 17 18 70 103 102 78 97 95 101 108
201 199 203 195 194 194 196 196 197 193 191 191 192 190 186 188 188 188 184 185 186 188 185 185 187 186 185 189 185 177 167 119 24 6 62 103 102 80 81 107 97 102 75
206 210 201 200 199 196 193 193 194 195 196 195 193 189 192 191 191 189 191 194 196 195 195 197 196 198 197 197 192 189 182 146 66 65 98 113 99 94 105 99 122 122 63
214 214 214 208 204 204 201 197 194 198 200 197 198 197 197 200 198 198 199 206 201 197 201 203 205 205 203 198 200 199 193 179 112 114 113 112 122 124 93 90 115 94 101
211 216 215 212 209 206 208 207 203 200 202 203 204 203 202 205 203 205 210 205 203 203 205 204 208 210 209 208 212 205 199 191 176 146 143 132 105 124 130 97 74 88 132
217 213 215 213 209 206 211 212 212 210 206 207 207 205 208 208 207 213 212 207 208 208 212 211 210 215 221 216 213 207 205 204 204 203 190 165 152 137 139 127 107 104 108
211 213 213 203 205 213 215 217 218 215 210 209 209 208 212 211 210 210 210 208 212 212 214 212 213 221 224 220 217 215 215 214 217 217 206 202 198 187 186 175 172 145 124
214 215 218 220 220 221 222 218 216 215 215 212 213 213 214 215 213 214 215 215 214 215 217 216 217 223 223 223 220 219 221 220 222 222 220 220 215 223 232 211 202 203 161
215 225 228 227 221 228 225 222 219 219 220 217 216 216 216 217 217 216 219 218 218 219 219 221 221 223 223 221 223 219 218 220 222 228 226 227 223 227 248 233 230 219 222
217 225 228 229 228 223 235 222 218 221 224 224 220 218 218 218 218 218 220 218 218 220 221 220 223 225 228 226 226 225 222 222 228 227 228 225 224 225 242 233 227 232 237
216 232 231 222 222 228 236 222 227 222 228 228 227 224 220 218 218 219 220 220 221 220 218 221 225 225 230 230 230 227 229 231 233 230 229 233 231 234 236 241 243 245 249
232 238 227 216 221 237 236 232 227 225 226 226 226 228 225 224 221 221 221 220 219 218 219 222 228 228 229 229 230 226 230 235 233 233 233 236 234 237 233 242 245 249 248
244 232 218 219 225 245 243 232 231 230 244 243 232 230 228 225 225 223 221 219 221 221 223 226 230 229 228 227 228 228 230 235 236 235 236 238 237 237 238 241 248 252 254
219 216 221 232 242 245 239 234 231 241 251 217 221 229 227 225 226 226 223 222 223 225 227 229 231 231 230 231 232 232 232 236 236 238 241 243 239 242 242 245 249 253 257
220 215 220 225 236 242 243 235 238 243 244 234 235 234 231 231 226 227 226 225 225 226 229 230 231 231 232 234 234 235 236 237 240 242 244 245 242 245 246 246 249 251 256
223 229 224 222 226 244 254 248 244 245 240 247 239 236 233 227 223 226 226 226 226 227 229 230 232 233 234 235 235 237 238 239 241 243 244 246 247 249 248 249 250 254 257
227 225 225 229 242 268 277 259 252 250 247 248 246 241 233 221 227 227 228 229 230 232 231 233 234 234 235 236 238 239 241 242 242 243 246 248 249 250 250 251 254 257 260
231 222 224 234 257 276 285 282 264 253 253 252 249 244 236 234 230 229 231 231 234 237 236 234 235 237 238 238 240 241 242 243 244 245 246 249 249 250 250 252 253 258 262
225 217 222 238 256 271 278 286 278 265 259 251 245 242 242 238 233 234 236 237 236 238 237 236 236 239 241 241 242 243 244 245 246 247 246 248 249 250 250 252 253 256 261
214 216 223 240 256 275 273 281 279 274 265 256 246 241 240 241 241 243 242 239 239 242 239 239 239 241 244 245 245 245 246 246 247 247 248 247 248 248 249 252 252 255 259
215 221 226 238 256 273 278 279 277 272 265 255 250 248 249 250 250 250 247 245 245 243 244 243 244 244 245 246 248 249 248 248 248 248 248 248 248 249 250 251 251 255 258
220 222 230 244 258 272 279 278 273 268 266 258 253 249 251 252 253 252 252 250 249 249 247 247 249 251 252 252 253 254 253 252 250 249 249 249 250 248 250 252 252 254 257
219 228 238 248 261 270 271 274 268 266 263 257 252 249 252 253 255 256 255 255 255 255 253 253 254 254 254 255 256 255 254 255 253 252 252 250 247 253 255 255 253 253 255
230 236 240 248 259 264 266 268 267 267 263 260 252 253 254 255 256 256 257 258 259 258 258 258 259 261 261 259 259 256 255 254 254 252 251 249 251 254 255 256 253 254 250
233 235 242 249 254 257 264 263 264 260 264 258 252 252 253 252 252 252 255 257 260 262 263 265 266 267 266 264 261 257 256 253 251 250 250 251 253 254 254 255 249 241 235
229 233 244 249 252 256 262 263 257 261 265 265 256 252 250 250 250 250 254 258 261 264 268 271 274 276 277 273 267 261 254 251 251 251 249 249 249 247 243 236 225 232 231